Wind_Speed
4 5 2 3 4 5 3 3 5 5 8 3 6 7 17 7 9 9 11 13 15 18 16 20 24 20 25 24 20 26 28 30 28 28 24 21 22 23 19 24 21 18 17 15
6 3 2 4 4 4 4 4 7 7 5 3 3 9 12 3 9 17 15 14 17 12 11 17 22 26 24 23 30 30 32 33 31 28 26 22 22 22 20 21 19 21 21 18
4 4 6 2 1 1 3 5 4 6 5 3 4 8 5 4 3 6 9 10 12 16 16 14 18 25 23 29 32 25 32 34 33 30 26 22 19 18 18 21 21 21 21 20
5 4 2 3 5 3 3 6 4 3 4 2 3 4 5 6 4 4 3 6 7 10 9 11 14 19 28 34 37 29 32 33 33 30 28 29 27 23 24 24 21 19 22 21
7 2 3 4 6 5 9 2 1 2 2 2 4 3 7 7 8 9 6 7 9 9 12 13 14 23 23 24 30 28 29 32 30 30 29 30 29 27 22 23 22 21 20 19
7 2 4 7 3 6 2 1 5 4 3 3 3 3 5 5 7 8 6 6 4 6 8 8 14 16 19 20 20 24 30 30 30 29 30 31 31 28 22 21 20 25 25 23
5 4 3 3 1 3 6 6 4 5 5 4 2 3 7 8 9 6 9 9 5 8 9 10 9 11 10 11 16 15 9 3 15 27 30 32 32 30 27 23 22 22 24 27
1 6 4 1 4 5 3 6 5 2 1 5 3 1 5 5 9 9 6 4 7 10 9 11 10 17 11 19 20 18 17 24 31 27 32 33 33 31 28 25 23 24 25 26
3 4 3 5 3 3 3 4 4 6 3 2 2 3 4 5 7 7 5 8 10 11 11 11 9 20 24 23 31 30 31 19 26 34 33 35 33 32 30 27 25 26 24 24
5 2 3 4 3 8 7 4 4 4 1 3 5 4 5 2 3 7 6 6 6 8 9 7 8 16 3 7 12 24 27 31 34 36 34 37 30 30 31 29 26 26 24 19
4 4 6 3 6 2 4 3 6 5 3 4 2 5 5 7 3 5 6 2 5 7 6 4 7 6 13 14 12 7 17 21 24 28 29 30 28 28 27 31 24 23 20 15
0 5 3 2 4 3 2 3 4 5 3 1 3 5 2 5 2 6 7 7 6 4 5 3 7 14 18 14 9 11 9 6 14 18 22 28 26 26 28 28 23 19 15 15
4 2 3 5 6 3 4 1 5 5 3 3 4 5 5 6 5 2 3 6 6 7 8 6 7 7 10 11 10 9 15 19 13 6 12 20 25 26 28 24 23 19 16 13
7 3 5 6 4 3 3 2 3 5 3 3 5 6 5 7 7 5 2 2 4 4 4 2 4 4 6 10 9 12 20 13 9 3 2 17 26 31 30 26 20 19 19 23
4 3 2 2 2 0 2 3 4 5 5 6 6 6 4 6 7 4 3 5 6 6 7 6 4 5 8 10 9 10 11 13 6 9 2 7 28 29 31 29 24 23 22 23
3 2 2 2 2 4 4 6 7 3 3 4 3 1 3 5 3 9 7 7 7 6 7 7 7 9 13 14 14 13 16 13 14 2 11 18 22 25 28 28 26 23 26 24
2 6 4 5 3 2 4 5 3 3 2 3 4 2 2 5 7 5 6 5 5 5 6 8 6 8 13 14 13 15 16 13 9 7 6 12 13 23 29 26 26 26 28 27
4 4 3 3 3 3 5 5 3 5 2 3 5 4 3 1 2 4 3 3 5 6 7 8 10 16 19 20 18 16 16 16 12 11 10 12 14 14 20 24 27 26 27 31
2 5 3 4 4 3 5 2 2 1 3 1 1 2 0 3 3 4 6 5 4 6 9 11 16 16 17 18 19 19 17 14 14 14 13 13 14 15 14 20 26 31 26 30
5 6 4 2 3 7 2 4 4 3 3 3 1 3 4 5 2 4 5 4 7 14 17 16 18 17 15 16 14 15 20 22 22 19 17 16 14 13 15 17 21 29 28 30
3 3 3 1 2 4 2 6 4 2 4 2 2 3 3 3 5 7 10 9 15 16 18 21 21 22 25 23 19 17 15 18 19 21 20 17 17 15 15 17 15 22 27 27
2 2 1 2 1 4 3 3 2 4 2 3 5 6 7 10 12 13 13 13 15 18 21 23 23 25 28 27 24 24 18 19 19 18 21 22 20 18 15 15 16 15 20 22
1 4 3 5 4 3 3 1 2 3 4 4 4 8 8 11 12 14 14 14 14 19 22 23 22 23 28 32 32 26 27 20 19 17 18 20 22 19 15 14 15 14 14 18
1 2 2 2 2 4 5 4 5 6 7 8 9 11 12 15 15 16 15 15 14 21 20 22 21 20 23 29 33 31 27 21 20 18 21 20 20 22 17 14 13 12 13 16
4 1 2 3 6 5 5 6 7 8 9 11 14 15 16 16 17 17 16 16 18 23 23 24 22 22 23 28 30 29 25 25 27 26 24 24 24 22 20 17 15 13 15 22
3 5 4 5 7 5 7 6 7 8 11 14 14 16 17 16 18 18 17 22 22 23 24 22 23 22 26 29 30 31 28 27 28 26 25 26 25 22 20 18 18 13 15 20
Wind_Direction
8 44 241 266 208 216 246 213 252 258 267 189 245 267 276 195 212 200 195 196 205 213 211 207 208 203 196 199 206 216 212 216 219 214 215 222 219 227 238 233 232 234 228 226
14 274 268 236 213 207 214 250 278 294 254 123 312 270 266 211 220 215 204 203 210 209 194 198 199 203 185 175 220 210 215 217 218 220 217 220 225 230 240 236 235 231 230 227
162 241 309 353 358 154 206 197 247 232 338 14 355 307 318 321 293 245 226 219 215 207 194 192 196 192 169 186 218 223 215 218 218 222 214 215 227 239 238 234 238 236 230 228
252 285 260 328 291 154 300 209 244 275 56 278 48 275 307 337 15 31 181 218 241 229 193 189 189 184 182 195 202 214 212 218 219 220 214 211 215 221 234 234 236 234 232 233
249 241 295 315 239 165 230 359 73 33 114 62 1 66 279 353 356 346 348 202 208 202 185 188 188 192 180 190 200 209 216 215 219 219 221 217 219 228 240 237 234 232 235 237
241 272 227 219 238 185 72 64 45 59 72 33 302 109 308 339 298 299 326 330 319 170 146 146 161 168 168 183 189 203 211 212 216 223 225 225 227 226 228 234 237 237 236 236
318 248 267 224 250 29 75 52 351 6 10 229 352 68 243 296 317 305 318 309 65 132 133 140 126 98 124 151 191 181 170 249 250 233 230 232 233 234 232 234 236 240 238 236
108 346 16 20 208 150 87 129 145 220 261 277 302 17 271 319 321 315 323 310 71 79 79 88 110 114 141 193 194 185 153 223 241 250 238 238 237 237 239 239 240 242 245 246
160 277 313 32 6 100 163 55 165 103 8 44 269 309 323 349 337 341 22 70 85 99 137 146 155 177 198 180 188 191 188 199 239 239 238 240 241 242 243 245 247 248 250 256
211 320 8 298 22 30 102 158 44 14 170 289 305 269 228 201 283 319 30 73 105 144 155 175 201 218 319 23 195 198 212 218 216 236 239 233 235 246 249 251 250 254 258 258
132 118 293 26 27 324 358 24 61 111 121 173 226 270 213 185 245 327 337 51 169 190 196 191 241 34 39 47 50 172 207 223 231 233 235 243 240 242 252 259 250 253 263 240
83 132 114 125 296 289 122 129 105 112 261 44 141 279 318 166 336 330 315 343 322 233 265 336 11 37 38 32 26 17 356 258 240 244 248 253 251 246 254 252 242 244 251 233
183 22 53 10 354 350 68 124 116 112 98 201 145 263 68 30 343 318 301 349 346 329 344 11 31 29 359 4 9 353 330 296 250 229 266 268 262 251 251 253 234 237 231 237
90 106 148 194 212 160 171 204 94 113 113 191 231 278 344 349 283 228 130 41 339 332 334 39 349 340 8 14 12 6 0 302 252 108 169 329 296 274 257 259 249 231 234 232
82 135 159 208 219 238 234 223 184 182 186 168 242 213 304 317 274 236 104 33 0 3 7 6 346 339 340 339 2 22 25 27 238 231 229 241 279 273 261 251 250 234 231 235
17 187 135 289 193 196 254 237 248 245 121 278 271 197 328 340 65 63 50 50 24 1 345 344 333 330 331 332 351 11 20 27 52 153 262 266 275 273 265 251 252 240 236 231
124 137 119 240 15 5 306 254 199 148 98 193 201 182 33 28 44 36 36 39 29 348 337 327 328 322 340 348 355 360 6 16 18 29 13 349 305 264 259 255 245 242 233 234
133 100 93 194 42 236 257 332 168 113 75 104 98 96 95 208 288 335 339 1 341 323 313 305 314 325 334 332 340 341 348 357 352 343 353 2 351 303 274 258 250 240 239 229
92 120 106 152 185 305 307 322 27 357 252 107 65 10 164 326 186 254 222 220 223 240 252 268 291 298 305 316 330 328 336 344 342 332 331 335 342 339 308 270 259 251 229 234
65 75 116 131 163 211 232 305 7 139 270 7 9 332 335 353 261 247 216 230 259 265 263 268 281 279 275 285 301 316 321 327 330 333 324 313 315 321 320 313 274 264 243 237
6 8 113 147 196 285 274 287 284 161 236 331 334 279 279 271 220 271 286 271 245 251 259 277 279 276 282 288 286 286 297 302 310 312 316 298 292 305 312 317 314 274 252 243
151 109 213 100 94 268 332 342 41 214 239 264 275 269 268 269 281 287 284 279 281 280 282 282 278 280 287 283 280 280 282 293 295 300 302 297 281 295 307 310 314 299 262 243
338 175 193 169 217 242 284 256 287 184 219 260 242 274 260 273 275 276 278 278 273 267 270 274 266 270 283 284 272 269 277 286 289 289 297 300 283 288 298 300 305 296 258 230
333 147 136 41 255 232 246 276 240 230 238 268 271 271 274 274 277 277 281 283 283 279 273 270 268 266 268 274 273 269 278 284 275 275 292 296 295 283 285 284 286 281 262 231
211 71 159 275 283 291 279 222 240 253 253 270 270 265 267 272 275 274 276 275 277 277 276 273 268 264 264 273 275 274 275 282 275 271 285 289 289 286 277 272 275 281 279 224
184 190 162 233 235 197 244 246 249 254 262 267 264 272 269 262 265 272 272 274 277 277 276 271 266 261 264 269 272 277 277 281 278 271 276 275 281 282 274 266 273 276 277 231
Height
771 789 795 787 785 783 787 798 800 781 764 763 771 771 750 749 752 755 756 757 757 753 753 762 765 770 773 778 786 786 790 795 798 802 806 808 808 810 813 815 818 820 822 824
787 796 778 775 779 785 793 797 794 773 762 763 766 769 752 747 747 740 743 750 748 751 754 756 759 762 771 781 777 775 782 789 793 796 800 804 805 807 809 812 815 817 819 821
793 780 770 771 778 785 788 794 784 782 770 764 769 779 758 746 743 739 740 740 743 743 747 750 753 756 770 768 779 778 780 786 790 792 795 799 802 804 806 809 811 814 817 819
784 771 770 775 780 779 789 770 771 771 786 806 777 816 775 762 749 743 740 742 742 741 742 746 748 753 757 762 769 771 776 782 789 792 792 792 794 799 802 806 808 811 814 816
786 773 775 780 774 769 782 762 770 773 789 793 790 809 786 768 766 752 744 737 736 736 738 741 743 747 757 763 767 773 777 783 787 789 792 792 792 794 799 803 806 808 811 814
779 761 765 767 756 760 759 767 783 796 805 823 802 807 802 792 784 765 746 740 735 736 738 740 744 751 759 765 771 774 776 779 781 786 790 791 792 792 794 799 802 804 806 809
780 770 758 754 765 761 772 798 833 825 839 828 812 811 803 781 770 765 758 747 735 734 737 741 746 755 763 769 771 773 776 781 785 784 786 789 790 792 792 794 797 799 801 803
804 802 765 753 760 771 781 793 831 830 843 834 807 813 798 773 767 761 753 749 743 743 747 752 753 755 758 760 763 767 770 766 764 779 781 786 788 789 789 791 793 795 797 798
805 791 759 756 753 759 781 804 793 827 832 833 819 796 781 773 770 765 758 751 750 751 749 749 751 745 732 746 749 756 763 756 772 779 776 783 786 787 787 788 790 791 793 794
778 797 769 761 755 760 772 781 808 826 827 829 825 810 808 785 778 771 764 759 756 752 751 749 748 748 749 759 762 758 758 762 774 774 775 777 778 782 783 784 786 788 790 792
775 788 787 773 787 790 790 798 813 821 832 840 843 819 786 782 775 774 768 760 758 755 752 750 751 755 755 758 761 765 763 763 764 771 773 775 772 775 779 783 783 786 787 788
772 796 807 792 783 780 780 793 810 829 824 840 840 822 774 775 773 773 771 766 762 755 755 757 759 756 755 757 759 759 761 762 765 764 766 770 771 773 773 779 781 783 783 786
769 800 816 805 798 783 790 788 804 820 830 833 837 822 781 781 776 771 771 771 769 766 762 762 762 762 761 760 759 759 756 759 759 756 763 766 767 768 771 774 775 777 781 781
768 803 803 819 802 796 798 790 795 808 830 830 827 806 789 793 786 773 771 773 771 770 767 765 765 765 763 762 763 761 755 752 757 756 757 760 765 768 767 770 773 773 777 779
775 797 795 793 791 790 790 789 792 799 804 813 804 808 795 795 788 780 775 774 775 773 771 770 769 767 767 767 764 762 759 754 753 755 749 751 759 760 761 761 765 767 770 772
785 802 796 795 790 791 795 792 794 791 795 800 799 800 793 790 785 783 783 782 783 781 779 776 773 772 769 766 763 762 762 759 755 758 759 759 757 758 756 756 758 761 764 766
785 804 813 816 806 801 811 796 791 795 797 798 805 797 793 796 792 792 790 787 787 786 783 779 775 773 768 766 764 761 761 760 760 759 759 756 752 750 750 751 751 753 757 759
797 806 816 821 812 827 802 791 788 795 797 796 797 796 796 796 795 794 791 790 789 787 784 780 775 769 766 764 761 759 758 757 759 759 756 753 751 747 744 744 746 745 747 750
791 807 824 825 830 814 799 792 794 796 799 795 797 796 795 794 793 793 790 787 785 783 779 777 774 769 765 762 759 757 755 755 755 755 753 750 747 743 741 741 742 739 743 742
797 801 808 827 817 824 803 792 788 790 812 797 794 796 797 796 802 798 785 785 784 782 779 775 773 771 767 762 760 757 752 750 747 747 746 746 745 743 739 737 735 735 736 737
810 814 815 821 817 813 795 793 789 807 811 796 795 795 795 798 794 784 783 781 780 777 775 773 769 766 762 758 756 753 751 748 747 743 741 741 741 739 736 733 731 731 730 730
809 815 819 824 816 815 793 790 798 800 796 793 792 791 791 788 783 779 777 774 771 767 765 763 760 757 754 753 750 746 744 744 742 741 739 736 734 734 732 730 727 728 728 727
810 809 813 812 813 800 795 793 791 793 794 791 789 786 784 782 777 772 768 764 761 758 756 753 751 749 747 745 742 739 737 738 736 734 733 731 729 728 726 726 723 724 723 721
800 803 807 805 801 798 794 793 791 789 789 785 782 779 776 773 768 764 760 756 753 750 748 746 743 741 738 736 733 732 732 732 731 730 728 726 724 723 722 721 720 721 720 717
804 800 807 808 799 795 790 790 785 784 782 779 775 772 767 763 759 755 752 747 744 741 739 737 735 732 729 727 725 724 724 724 723 723 722 721 719 717 717 715 714 713 713 713
801 800 806 807 793 792 789 782 780 781 776 771 768 762 757 755 750 746 742 738 736 732 730 728 726 724 721 719 716 715 716 715 714 713 714 714 713 711 710 709 706 705 704 705